Terminal Aerodrome Forecast
Issued by NWS Wilmington, OH

Current Version | Previous Version | Graphics & Text | Print | Product List | Glossary On
Versions: 1 2 3 4 5 6 7 8 9 10 11 12 13 14 15 16 17 18 19 20 21 22 23 24 25 26 27 28
000
FTUS41 KILN 151600 AAC
TAFCVG
TAF AMD
KCVG 151642Z 1517/1618 33014G22KT P6SM VCSH BKN040
     FM152100 33012KT P6SM BKN040
     FM160000 33008KT P6SM SCT040
     FM160300 VRB03KT P6SM SKC
     FM161400 13008KT P6SM SKC=

USA.gov is the U.S. government's official web portal to all federal, state and local government web resources and services.